period_start,C,m1,H,J0,J1,J2,J3,J4,J5,JA,JB,JC,JD,JJ,JK,JN,#
2016-06-08 00:04:43,0.06,1.63,0.00,26.53,30.14,32.63,14.40,47.43,1020.54,2024.00,2886.26,2695.68,3012.32,600.39,591.67,25.82,0000 0000 0000 0000 000000
2016-06-08 00:09:45,0.05,1.64,0.00,26.56,30.16,32.67,14.36,47.33,1020.55,2023.99,2885.26,2694.86,3011.51,599.91,591.11,25.87,0000 0000 0000 0000 000000
2016-06-08 00:14:46,0.06,1.64,0.00,26.61,30.18,32.68,14.36,47.25,1020.53,2023.95,2883.99,2693.98,3010.38,600.12,591.42,25.92,0000 0000 0000 0000 000000
2016-06-08 00:19:47,0.04,1.64,0.00,26.65,30.21,32.68,14.36,47.11,1020.54,2023.84,2883.05,2693.15,3009.63,600.12,591.17,25.97,0000 0000 0000 0000 000000
2016-06-08 00:24:48,0.03,1.64,0.00,26.69,30.23,32.71,14.33,47.15,1020.56,2023.35,2881.64,2692.21,3008.31,600.13,591.08,26.02,0000 0000 0000 0000 000000
2016-06-08 00:29:50,0.05,1.65,0.00,26.74,30.26,32.73,14.32,47.35,1020.56,2023.05,2880.60,2691.21,3007.38,600.09,590.98,26.07,0000 0000 0000 0000 000000
2016-06-08 00:34:51,0.06,1.65,0.00,26.79,30.29,32.76,14.23,47.24,1020.54,2023.01,2879.37,2690.34,3006.35,599.73,590.53,26.12,0000 0000 0000 0000 000000
2016-06-08 00:39:52,0.09,1.65,0.00,26.83,30.32,32.78,14.27,47.39,1020.53,2023.00,2878.03,2689.42,3005.06,600.28,591.03,26.17,0000 0000 0000 0000 000000
2016-06-08 00:44:54,0.06,1.66,0.00,26.88,30.35,32.84,14.22,47.15,1020.53,2023.00,2876.92,2688.24,3004.07,599.60,590.21,26.22,0000 0000 0000 0000 000000
2016-06-08 00:49:55,0.07,1.66,0.00,26.92,30.38,32.85,14.30,47.24,1020.53,2022.98,2875.60,2687.37,3002.91,600.11,590.59,26.27,0000 0000 0000 0000 000000
2016-06-08 00:54:57,0.06,1.66,0.00,26.97,30.41,32.88,14.33,47.30,1020.53,2022.95,2874.53,2686.65,3001.97,600.09,590.50,26.32,0000 0000 0000 0000 000000
2016-06-08 00:59:58,0.02,1.67,0.00,27.01,30.45,32.90,14.25,47.13,1020.53,2022.65,2873.39,2685.74,3001.04,599.56,589.98,26.37,0000 0000 0000 0000 000000
2016-06-08 01:04:59,-0.00,1.67,0.00,27.05,30.48,32.93,14.31,47.30,1020.52,2022.15,2872.60,2684.96,3000.33,600.23,590.48,26.42,0000 0000 0000 0000 000000
2016-06-08 01:10:00,0.07,1.67,0.00,27.10,30.52,32.95,14.31,47.58,1020.52,2022.07,2871.18,2684.04,2999.06,599.80,589.92,26.47,0000 0000 0000 0000 000000
2016-06-08 01:15:02,0.07,1.67,0.00,27.14,30.55,32.99,14.27,47.23,1020.52,2022.00,2870.06,2683.12,2998.01,599.71,589.82,26.52,0000 0000 0000 0000 000000
2016-06-08 01:20:03,0.06,1.68,0.00,27.19,30.59,33.03,14.31,47.14,1020.52,2022.00,2869.14,2682.28,2997.19,600.00,590.02,26.57,0000 0000 0000 0000 000000
2016-06-08 01:25:04,0.06,1.68,0.00,27.24,30.62,33.06,14.20,47.23,1020.52,2021.98,2867.95,2681.42,2996.13,599.78,589.67,26.62,0000 0000 0000 0000 000000
2016-06-08 01:30:05,0.10,1.68,0.00,27.29,30.66,33.08,14.23,47.01,1020.52,2021.96,2866.34,2680.43,2994.60,600.00,589.72,26.67,0000 0000 0000 0000 000000
2016-06-08 01:35:06,-0.01,1.68,0.00,27.35,30.70,33.14,14.35,47.63,1020.52,2021.55,2865.58,2679.69,2994.05,600.48,590.15,26.72,0000 0000 0000 0000 000000
2016-06-08 01:40:08,0.05,1.69,0.00,27.40,30.73,33.16,14.23,47.18,1020.52,2021.18,2863.98,2678.63,2992.64,599.67,589.27,26.77,0000 0000 0000 0000 000000
2016-06-08 01:45:09,0.04,1.69,0.00,27.45,30.77,33.20,14.23,47.09,1020.51,2021.01,2863.29,2677.82,2991.99,599.80,589.26,26.82,0000 0000 0000 0000 000000
2016-06-08 01:50:10,0.08,1.69,0.00,27.50,30.81,33.23,14.20,47.14,1020.51,2021.01,2862.10,2676.79,2990.99,599.96,589.40,26.87,0000 0000 0000 0000 000000
2016-06-08 01:55:12,0.09,1.70,0.00,27.56,30.85,33.27,14.29,47.17,1020.51,2021.00,2860.29,2675.73,2989.34,600.29,589.64,26.92,0000 0000 0000 0000 000000
2016-06-08 02:00:13,0.07,1.70,0.00,27.62,30.88,33.31,14.24,47.05,1020.51,2020.97,2859.03,2674.73,2988.21,599.85,588.97,26.97,0000 0000 0000 0000 000000
2016-06-08 02:05:15,0.07,1.71,0.00,27.67,30.92,33.33,14.25,47.17,1020.52,2020.90,2857.66,2673.60,2986.96,599.71,588.73,27.02,0000 0000 0000 0000 000000
2016-06-08 02:10:16,0.03,1.71,0.00,27.73,30.96,33.39,14.33,47.13,1020.52,2020.40,2856.13,2672.38,2985.66,600.53,589.45,27.07,0000 0000 0000 0000 000000
2016-06-08 02:15:17,0.11,1.71,0.00,27.79,31.00,33.42,14.23,47.14,1020.52,2020.05,2854.28,2670.85,2983.87,599.38,588.27,27.12,0000 0000 0000 0000 000000
2016-06-08 02:20:18,0.11,1.72,0.00,27.85,31.04,33.46,14.31,47.12,1020.52,2020.00,2852.13,2669.30,2981.86,600.34,589.12,27.17,0000 0000 0000 0000 000000
2016-06-08 02:25:20,0.12,1.72,0.00,27.90,31.09,33.49,14.18,47.17,1020.52,2020.00,2850.58,2667.75,2980.36,599.83,588.42,27.22,0000 0000 0000 0000 000000
2016-06-08 02:30:21,0.15,1.73,0.00,27.95,31.13,33.53,14.25,47.04,1020.52,2019.94,2848.40,2665.79,2978.26,600.18,588.65,27.27,0000 0000 0000 0000 000000
2016-06-08 02:35:23,0.08,1.74,0.00,28.00,31.17,33.57,14.31,47.33,1020.52,2019.42,2846.11,2663.88,2975.99,600.42,588.80,27.32,0000 0000 0000 0000 000000
2016-06-08 02:40:24,0.09,1.74,0.00,28.06,31.21,33.61,14.23,47.06,1020.52,2019.05,2844.01,2661.99,2973.87,599.93,588.24,27.37,0000 0000 0000 0000 000000
2016-06-08 02:45:25,0.16,1.75,0.00,28.11,31.26,33.66,14.22,47.10,1020.51,2019.00,2842.15,2660.13,2971.97,599.99,588.15,27.42,0000 0000 0000 0000 000000
2016-06-08 02:50:27,0.11,1.75,0.00,28.16,31.30,33.69,14.20,46.92,1020.50,2018.97,2840.10,2658.18,2969.92,600.47,588.54,27.47,0000 0000 0000 0000 000000
2016-06-08 02:55:28,0.03,1.76,0.00,28.23,31.34,33.74,14.22,47.09,1020.52,2018.63,2838.62,2656.92,2968.51,599.96,587.81,27.52,0000 0000 0000 0000 000000
2016-06-08 03:00:30,0.06,1.76,0.00,28.29,31.38,33.78,14.17,46.98,1020.52,2018.15,2836.89,2655.71,2966.94,599.93,587.76,27.57,0000 0000 0000 0000 000000
2016-06-08 03:05:31,0.09,1.76,0.00,28.34,31.43,33.82,14.25,47.05,1020.52,2018.00,2835.86,2654.60,2965.96,600.10,587.87,27.62,0000 0000 0000 0000 000000
2016-06-08 03:10:33,0.08,1.77,0.00,28.39,31.48,33.87,14.24,47.25,1020.52,2018.00,2834.19,2653.43,2964.45,600.32,587.93,27.67,0000 0000 0000 0000 000000
2016-06-08 03:15:34,0.05,1.77,0.00,28.45,31.53,33.93,14.17,46.96,1020.52,2017.91,2833.37,2652.54,2963.66,600.48,588.17,27.72,0000 0000 0000 0000 000000
2016-06-08 03:20:35,0.07,1.78,0.00,28.51,31.57,33.97,14.32,47.27,1020.52,2017.64,2832.02,2651.52,2962.46,600.26,587.65,27.77,0000 0000 0000 0000 000000
2016-06-08 03:25:36,0.01,1.78,0.00,28.56,31.62,34.03,14.19,47.09,1020.52,2017.09,2830.75,2650.67,2961.27,600.07,587.34,27.82,0000 0000 0000 0000 000000
2016-06-08 03:30:37,0.06,1.78,0.00,28.61,31.67,34.07,14.26,47.24,1020.52,2017.00,2829.72,2649.68,2960.36,599.85,587.08,27.88,0000 0000 0000 0000 000000
2016-06-08 03:35:39,0.04,1.78,0.00,28.66,31.72,34.12,14.19,47.21,1020.52,2016.97,2828.92,2648.81,2959.57,599.72,586.83,27.93,0000 0000 0000 0000 000000
2016-06-08 03:40:40,0.08,1.79,0.00,28.73,31.77,34.17,14.18,47.10,1020.52,2016.73,2827.47,2647.69,2958.29,599.97,586.91,27.98,0000 0000 0000 0000 000000
2016-06-08 03:45:41,0.04,1.79,0.00,28.78,31.82,34.23,14.06,46.91,1020.52,2016.18,2825.73,2646.48,2956.67,599.64,586.52,28.03,0000 0000 0000 0000 000000
2016-06-08 03:50:42,0.06,1.79,0.00,28.83,31.87,34.27,14.15,47.06,1020.51,2016.02,2824.44,2645.48,2955.48,599.93,586.71,28.08,0000 0000 0000 0000 000000
2016-06-08 03:55:44,0.08,1.80,0.00,28.89,31.92,34.32,14.15,47.02,1020.50,2016.00,2823.19,2644.48,2954.35,599.81,586.40,28.13,0000 0000 0000 0000 000000
2016-06-08 04:00:45,0.06,1.80,0.00,28.95,31.97,34.36,14.14,47.04,1020.49,2015.98,2822.08,2643.66,2953.31,599.58,586.10,28.18,0000 0000 0000 0000 000000
2016-06-08 04:05:47,0.00,1.80,0.00,28.98,32.02,34.42,14.16,47.02,1020.49,2015.75,2821.15,2642.81,2952.50,600.00,586.36,28.23,0000 0000 0000 0000 000000
2016-06-08 04:10:48,0.09,1.80,0.00,29.04,32.07,34.46,14.21,47.02,1020.48,2015.23,2819.27,2641.58,2950.75,600.10,586.38,28.28,0000 0000 0000 0000 000000
2016-06-08 04:15:50,0.07,1.81,0.00,29.10,32.12,34.52,14.16,46.92,1020.51,2015.01,2817.83,2640.51,2949.49,599.99,586.12,28.33,0000 0000 0000 0000 000000
2016-06-08 04:20:51,0.06,1.81,0.00,29.15,32.17,34.58,14.08,46.97,1020.50,2014.99,2816.80,2639.66,2948.59,599.66,585.81,28.38,0000 0000 0000 0000 000000
2016-06-08 04:25:52,0.04,1.81,0.00,29.20,32.22,34.62,14.21,47.07,1020.51,2014.68,2815.55,2638.61,2947.43,600.09,586.10,28.43,0000 0000 0000 0000 000000
2016-06-08 04:30:54,0.01,1.81,0.00,29.24,32.27,34.67,14.20,47.11,1020.50,2014.24,2814.74,2637.79,2946.70,600.01,585.97,28.48,0000 0000 0000 0000 000000
2016-06-08 04:35:55,0.10,1.82,0.00,29.29,32.32,34.72,14.21,47.02,1020.47,2014.00,2813.26,2636.72,2945.44,600.20,586.01,28.53,0000 0000 0000 0000 000000
2016-06-08 04:40:57,0.03,1.82,0.00,29.34,32.36,34.77,14.13,46.95,1020.37,2013.99,2812.45,2635.81,2944.66,600.05,585.74,28.58,0000 0000 0000 0000 000000
2016-06-08 04:45:58,0.03,1.82,0.00,29.39,32.41,34.82,14.19,47.15,1020.31,2013.67,2811.47,2634.87,2943.83,600.06,585.69,28.63,0000 0000 0000 0000 000000
2016-06-08 04:50:59,0.03,1.82,0.00,29.43,32.46,34.87,14.08,46.88,1020.34,2013.23,2810.01,2633.93,2942.54,599.90,585.46,28.68,0000 0000 0000 0000 000000
2016-06-08 04:56:01,0.03,1.83,0.00,29.47,32.51,34.91,14.17,46.63,1020.36,2013.02,2809.35,2633.10,2941.97,600.16,585.53,28.73,0000 0000 0000 0000 000000
2016-06-08 05:01:02,0.07,1.83,0.00,29.52,32.56,34.96,14.17,46.89,1020.43,2013.00,2808.18,2632.24,2941.02,600.29,585.74,28.78,0000 0000 0000 0000 000000
2016-06-08 05:06:04,0.09,1.83,0.00,29.56,32.60,35.02,14.19,47.00,1020.43,2012.95,2806.79,2631.18,2939.77,600.23,585.62,28.83,0000 0000 0000 0000 000000
2016-06-08 05:11:05,0.01,1.83,0.00,29.60,32.65,35.05,14.05,46.67,1020.40,2012.38,2805.46,2630.04,2938.65,599.80,585.01,28.88,0000 0000 0000 0000 000000
2016-06-08 05:16:07,0.07,1.84,0.00,29.65,32.70,35.11,14.00,46.44,1020.17,2012.03,2803.90,2628.95,2937.23,599.66,584.72,28.93,0000 0000 0000 0000 000000
2016-06-08 05:21:08,0.06,1.84,0.00,29.69,32.75,35.15,14.16,47.06,1020.14,2012.00,2802.86,2628.00,2936.22,599.73,584.54,28.98,0000 0000 0000 0000 000000
2016-06-08 05:26:09,0.08,1.84,0.00,29.72,32.80,35.19,14.10,46.84,1020.11,2011.91,2801.64,2626.94,2935.19,599.54,584.44,29.03,0000 0000 0000 0000 000000
2016-06-08 05:31:10,-0.01,1.85,0.00,29.77,32.85,35.24,14.07,47.02,1020.08,2011.31,2800.56,2625.92,2934.15,599.40,584.14,29.08,0000 0000 0000 0000 000000
2016-06-08 05:36:12,0.08,1.85,0.00,29.82,32.90,35.29,14.23,46.75,1020.07,2011.01,2799.28,2624.85,2932.93,600.20,584.79,29.13,0000 0000 0000 0000 000000
2016-06-08 05:41:13,0.07,1.85,0.00,29.85,32.95,35.33,14.12,46.73,1020.05,2011.00,2797.95,2623.78,2931.79,599.96,584.48,29.18,0000 0000 0000 0000 000000
2016-06-08 05:46:14,0.06,1.86,0.00,29.88,32.99,35.37,14.21,47.13,1020.05,2010.86,2796.56,2622.82,2930.53,600.17,584.64,29.23,0000 0000 0000 0000 000000
2016-06-08 05:51:16,0.02,1.86,0.00,29.93,33.03,35.42,14.14,47.08,1020.05,2010.33,2795.35,2621.81,2929.42,600.30,584.66,29.28,0000 0000 0000 0000 000000
2016-06-08 05:56:17,0.09,1.86,0.00,29.98,33.08,35.47,14.16,47.08,1020.04,2010.01,2793.59,2620.56,2927.96,600.31,584.52,29.33,0000 0000 0000 0000 000000
2016-06-08 06:01:19,0.08,1.87,0.00,30.02,33.13,35.51,14.17,47.06,1020.04,2010.00,2792.33,2619.53,2926.72,600.10,584.27,29.38,0000 0000 0000 0000 000000
2016-06-08 06:06:20,0.10,1.87,0.00,30.07,33.18,35.55,14.14,46.83,1020.04,2009.98,2790.77,2618.24,2925.23,599.85,583.93,29.43,0000 0000 0000 0000 000000
2016-06-08 06:11:21,0.10,1.88,0.00,30.11,33.22,35.60,14.17,46.81,1020.04,2009.87,2788.89,2616.84,2923.47,599.91,583.93,29.48,0000 0000 0000 0000 000000
2016-06-08 06:16:22,0.03,1.88,0.00,30.16,33.27,35.64,14.09,46.70,1020.04,2009.30,2787.33,2615.58,2922.05,599.99,583.91,29.53,0000 0000 0000 0000 000000
2016-06-08 06:21:24,0.07,1.88,0.00,30.20,33.31,35.69,14.10,46.66,1020.04,2009.03,2785.75,2614.29,2920.57,599.70,583.46,29.58,0000 0000 0000 0000 000000
2016-06-08 06:26:25,0.11,1.89,0.00,30.24,33.36,35.73,14.12,46.56,1020.04,2009.00,2783.95,2612.91,2918.89,600.14,583.74,29.63,0000 0000 0000 0000 000000
2016-06-08 06:31:26,0.10,1.89,0.00,30.28,33.40,35.78,14.17,46.86,1020.04,2008.99,2782.40,2611.65,2917.48,599.82,583.51,29.68,0000 0000 0000 0000 000000
2016-06-08 06:36:28,0.07,1.90,0.00,30.33,33.44,35.82,14.10,46.81,1020.04,2008.80,2781.01,2610.34,2916.19,600.01,583.60,29.73,0000 0000 0000 0000 000000
2016-06-08 06:41:29,0.06,1.90,0.00,30.38,33.49,35.87,14.11,47.08,1020.04,2008.17,2779.20,2608.76,2914.45,599.74,583.36,29.78,0000 0000 0000 0000 000000
2016-06-08 06:46:30,0.10,1.90,0.00,30.43,33.53,35.91,14.12,46.83,1020.04,2008.00,2777.30,2607.22,2912.68,600.73,584.06,29.83,0000 0000 0000 0000 000000
2016-06-08 06:51:31,0.12,1.91,0.00,30.48,33.58,35.94,14.14,47.26,1020.05,2008.00,2775.65,2605.75,2911.02,600.23,583.55,29.88,0000 0000 0000 0000 000000
2016-06-08 06:56:33,0.11,1.92,0.00,30.52,33.62,35.98,14.10,46.75,1020.05,2007.91,2773.70,2604.17,2909.17,600.18,583.42,29.93,0000 0000 0000 0000 000000
2016-06-08 07:01:34,0.07,1.92,0.00,30.58,33.66,36.03,14.15,47.01,1020.05,2007.36,2771.60,2602.50,2907.13,599.86,583.00,29.98,0000 0000 0000 0000 000000
2016-06-08 07:06:35,0.09,1.93,0.00,30.62,33.71,36.07,14.00,46.62,1020.07,2007.06,2769.75,2600.99,2905.30,599.66,582.70,30.03,0000 0000 0000 0000 000000
2016-06-08 07:11:37,0.12,1.93,0.00,30.68,33.75,36.11,14.12,46.80,1020.13,2007.01,2767.90,2599.47,2903.54,600.25,583.23,30.08,0000 0000 0000 0000 000000
2016-06-08 07:16:38,0.09,1.94,0.00,30.72,33.79,36.16,14.07,46.71,1020.09,2007.00,2766.56,2598.11,2902.23,599.63,582.51,30.13,0000 0000 0000 0000 000000
2016-06-08 07:21:39,0.12,1.94,0.00,30.78,33.84,36.20,14.13,46.72,1020.06,2006.92,2764.75,2596.58,2900.47,599.98,582.73,30.18,0000 0000 0000 0000 000000
2016-06-08 07:26:40,0.08,1.95,0.00,30.83,33.88,36.24,14.13,46.66,1020.07,2006.50,2762.76,2595.05,2898.66,600.32,582.79,30.23,0000 0000 0000 0000 000000
2016-06-08 07:31:41,0.08,1.95,0.00,30.87,33.93,36.29,14.10,46.83,1020.23,2006.07,2760.92,2593.56,2896.92,600.06,582.77,30.28,0000 0000 0000 0000 000000
2016-06-08 07:36:42,0.11,1.96,0.00,30.92,33.98,36.33,14.15,46.77,1020.28,2006.01,2759.20,2592.15,2895.34,600.07,582.66,30.33,0000 0000 0000 0000 000000
2016-06-08 07:41:44,0.12,1.96,0.00,30.98,34.02,36.38,14.13,46.73,1020.29,2005.99,2757.47,2590.70,2893.64,600.38,582.91,30.38,0000 0000 0000 0000 000000
2016-06-08 07:46:45,0.09,1.97,0.00,31.04,34.07,36.42,14.01,46.52,1020.19,2005.91,2755.91,2589.38,2892.31,599.65,582.05,30.43,0000 0000 0000 0000 000000
2016-06-08 07:51:46,0.06,1.97,0.00,31.08,34.12,36.47,14.03,46.38,1020.17,2005.34,2754.08,2587.79,2890.53,599.99,582.13,30.48,0000 0000 0000 0000 000000
2016-06-08 07:56:47,0.08,1.98,0.00,31.14,34.16,36.52,14.03,46.50,1020.09,2005.04,2752.58,2586.36,2888.98,599.85,581.87,30.53,0000 0000 0000 0000 000000
2016-06-08 08:01:49,0.11,1.98,0.00,31.20,34.21,36.56,14.06,46.68,1020.13,2005.00,2750.88,2584.84,2887.32,600.01,582.01,30.58,0000 0000 0000 0000 000000
2016-06-08 08:06:50,0.10,1.99,0.00,31.25,34.26,36.61,14.10,46.69,1020.14,2004.93,2749.40,2583.57,2885.73,600.18,581.91,30.63,0000 0000 0000 0000 000000
2016-06-08 08:11:51,0.06,1.99,0.00,31.30,34.31,36.65,14.07,46.63,1020.23,2004.38,2747.62,2581.99,2884.01,600.15,581.92,30.68,0000 0000 0000 0000 000000
2016-06-08 08:16:53,0.12,2.00,0.00,31.36,34.36,36.70,14.11,46.83,1020.19,2004.08,2745.42,2580.38,2881.93,600.19,581.93,30.73,0000 0000 0000 0000 000000
2016-06-08 08:21:54,0.17,2.00,0.00,31.42,34.41,36.74,14.03,46.48,1020.14,2004.01,2742.89,2578.42,2879.80,600.00,581.62,30.78,0000 0000 0000 0000 000000
2016-06-08 08:26:55,0.11,2.01,0.00,31.47,34.46,36.79,14.01,46.49,1020.31,2004.00,2740.82,2576.77,2878.22,599.96,581.53,30.83,0000 0000 0000 0000 000000
2016-06-08 08:31:56,0.10,2.01,0.00,31.52,34.50,36.83,13.96,46.48,1020.45,2003.92,2739.14,2575.51,2876.65,599.96,581.52,30.88,0000 0000 0000 0000 000000
2016-06-08 08:36:57,0.01,2.02,0.00,31.56,34.56,36.88,14.04,46.60,1020.45,2003.37,2737.71,2574.42,2875.43,599.84,581.31,30.93,0000 0000 0000 0000 000000
2016-06-08 08:41:59,0.07,2.02,0.00,31.61,34.60,36.93,14.06,46.56,1020.44,2003.01,2736.32,2573.14,2874.06,600.01,581.50,30.98,0000 0000 0000 0000 000000
2016-06-08 08:47:00,0.11,2.02,0.00,31.67,34.65,36.99,14.09,46.60,1020.47,2003.00,2734.71,2571.94,2872.63,600.25,581.48,31.04,0000 0000 0000 0000 000000
2016-06-08 08:52:01,0.07,2.03,0.00,31.72,34.70,37.04,14.07,46.73,1020.44,2002.91,2733.24,2570.79,2871.31,600.03,581.15,31.09,0000 0000 0000 0000 000000
2016-06-08 08:57:02,0.02,2.03,0.00,31.77,34.75,37.09,14.08,46.41,1020.43,2002.30,2731.87,2569.61,2870.01,600.28,581.37,31.14,0000 0000 0000 0000 000000
2016-06-08 09:02:04,0.09,2.04,0.00,31.82,34.80,37.14,14.02,46.23,1020.41,2002.02,2730.21,2568.40,2868.55,600.04,580.99,31.19,0000 0000 0000 0000 000000
2016-06-08 09:07:05,0.07,2.04,0.00,31.86,34.85,37.18,14.05,46.44,1020.33,2002.00,2728.93,2567.36,2867.42,600.01,580.80,31.24,0000 0000 0000 0000 000000
2016-06-08 09:12:07,0.08,2.04,0.00,31.92,34.90,37.24,14.04,46.45,1020.30,2001.95,2727.46,2566.15,2866.08,599.97,580.67,31.29,0000 0000 0000 0000 000000
2016-06-08 09:17:08,0.04,2.05,0.00,31.97,34.95,37.29,13.99,46.42,1020.25,2001.57,2726.02,2564.99,2864.75,599.52,580.17,31.34,0000 0000 0000 0000 000000
2016-06-08 09:22:09,0.06,2.05,0.00,32.02,34.99,37.33,13.96,46.33,1020.22,2001.09,2724.69,2563.85,2863.56,599.74,580.14,31.39,0000 0000 0000 0000 000000
2016-06-08 09:27:11,0.09,2.05,0.00,32.07,35.04,37.38,13.97,46.25,1020.31,2001.00,2723.25,2562.71,2862.24,599.87,580.30,31.44,0000 0000 0000 0000 000000
2016-06-08 09:32:12,0.08,2.06,0.00,32.12,35.09,37.43,14.04,46.42,1020.24,2000.98,2721.97,2561.66,2861.11,600.20,580.48,31.49,0000 0000 0000 0000 000000
2016-06-08 09:37:14,0.09,2.06,0.00,32.17,35.14,37.47,14.03,46.44,1020.17,2000.88,2720.54,2560.59,2859.78,600.30,580.49,31.54,0000 0000 0000 0000 000000
2016-06-08 09:42:15,0.03,2.06,0.00,32.22,35.19,37.52,14.01,46.23,1020.16,2000.28,2718.92,2559.43,2858.42,600.09,580.13,31.59,0000 0000 0000 0000 000000
2016-06-08 09:47:16,0.06,2.07,0.00,32.29,35.24,37.58,14.09,46.45,1020.09,2000.02,2717.62,2558.59,2857.18,600.24,580.11,31.64,0000 0000 0000 0000 000000
2016-06-08 09:52:18,0.09,2.07,0.00,32.33,35.29,37.63,13.94,46.38,1020.10,1999.99,2716.23,2557.48,2855.88,599.80,579.63,31.69,0000 0000 0000 0000 000000
2016-06-08 09:57:19,0.08,2.08,0.00,32.39,35.34,37.68,14.01,46.38,1020.11,1999.93,2714.79,2556.41,2854.69,600.14,579.82,31.74,0000 0000 0000 0000 000000
2016-06-08 10:02:20,0.00,2.08,0.00,32.44,35.39,37.73,14.00,46.41,1020.16,1999.39,2713.64,2555.31,2853.61,599.92,579.61,31.79,0000 0000 0000 0000 000000
2016-06-08 10:07:21,0.07,2.08,0.00,32.49,35.44,37.77,13.96,46.42,1020.09,1999.04,2712.44,2554.26,2852.43,599.77,579.27,31.84,0000 0000 0000 0000 000000
2016-06-08 10:12:22,0.09,2.08,0.00,32.53,35.49,37.83,14.00,46.23,1020.06,1998.98,2711.04,2553.15,2851.25,599.81,579.25,31.89,0000 0000 0000 0000 000000
2016-06-08 10:17:24,0.06,2.09,0.00,32.59,35.54,37.89,13.98,46.22,1020.06,1998.77,2709.53,2552.09,2850.00,599.77,579.09,31.94,0000 0000 0000 0000 000000
2016-06-08 10:22:25,0.01,2.09,0.00,32.64,35.59,37.94,14.04,46.64,1020.05,1998.14,2708.46,2550.98,2848.94,600.34,579.50,31.99,0000 0000 0000 0000 000000
2016-06-08 10:27:26,0.08,2.09,0.00,32.68,35.64,38.01,14.03,46.69,1020.06,1998.00,2707.21,2549.89,2847.70,600.08,579.20,32.04,0000 0000 0000 0000 000000
2016-06-08 10:32:28,0.09,2.10,0.00,32.74,35.69,38.07,13.93,46.33,1020.08,1998.00,2705.93,2548.80,2846.57,600.01,579.04,32.09,0000 0000 0000 0000 000000
2016-06-08 10:37:29,0.05,2.10,0.00,32.78,35.75,38.14,13.98,46.47,1020.10,1997.88,2704.68,2547.84,2845.32,600.01,578.97,32.14,0000 0000 0000 0000 000000
2016-06-08 10:42:30,0.02,2.10,0.00,32.84,35.80,38.22,14.06,46.27,1020.16,1997.32,2703.36,2546.78,2844.27,600.00,579.05,32.19,0000 0000 0000 0000 000000
2016-06-08 10:47:31,0.10,2.11,0.00,32.89,35.85,38.29,14.02,46.16,1020.31,1997.02,2701.53,2545.59,2842.58,599.98,578.85,32.24,0000 0000 0000 0000 000000
2016-06-08 10:52:32,0.11,2.11,0.00,32.95,35.91,38.36,13.95,46.25,1020.34,1997.02,2699.07,2544.13,2840.46,599.58,578.33,32.29,0000 0000 0000 0000 000000
2016-06-08 10:57:34,0.15,2.12,0.00,33.01,35.96,38.42,14.02,46.42,1020.40,1997.00,2697.16,2543.15,2838.75,599.88,578.56,32.34,0000 0000 0000 0000 000000
2016-06-08 11:02:35,0.05,2.12,0.00,33.06,36.02,38.47,13.93,46.13,1020.46,1997.00,2695.99,2542.14,2837.69,599.58,578.26,32.39,0000 0000 0000 0000 000000
2016-06-08 11:07:37,0.07,2.13,0.00,33.10,36.07,38.53,14.02,46.10,1020.48,1996.84,2694.89,2541.23,2836.65,600.48,578.84,32.44,0000 0000 0000 0000 000000
2016-06-08 11:12:38,0.02,2.13,0.00,33.14,36.12,38.59,13.95,46.27,1020.42,1996.23,2693.43,2540.16,2835.30,600.11,578.62,32.49,0000 0000 0000 0000 000000
2016-06-08 11:17:39,0.05,2.13,0.00,33.14,36.17,38.60,13.91,46.17,1020.42,1996.01,2692.31,2539.15,2834.28,599.72,578.13,32.54,0000 0000 0000 0000 000000
2016-06-08 11:22:40,0.08,2.14,0.00,33.17,36.22,38.63,14.04,46.54,1020.25,1995.98,2691.36,2538.23,2833.36,600.58,578.75,32.59,0000 0000 0000 0000 000000
2016-06-08 11:27:41,0.05,2.14,0.00,33.19,36.27,38.67,13.93,46.56,1020.14,1995.83,2690.33,2537.28,2832.53,600.16,578.40,32.64,0000 0000 0000 0000 000000
2016-06-08 11:32:43,-0.01,2.14,0.00,33.20,36.31,38.71,14.01,46.58,1020.10,1995.21,2689.38,2536.29,2831.66,600.20,578.28,32.70,0000 0000 0000 0000 000000
2016-06-08 11:37:44,0.08,2.14,0.00,33.23,36.35,38.75,13.99,46.57,1020.12,1995.00,2688.26,2535.31,2830.62,599.95,578.11,32.75,0000 0000 0000 0000 000000
2016-06-08 11:42:46,0.07,2.15,0.00,33.26,36.39,38.78,13.98,46.53,1020.08,1994.97,2687.01,2534.22,2829.51,599.89,577.96,32.80,0000 0000 0000 0000 000000
2016-06-08 11:47:47,0.07,2.15,0.00,33.28,36.43,38.80,13.95,46.92,1020.05,1994.82,2685.72,2533.27,2828.39,599.96,577.81,32.85,0000 0000 0000 0000 000000
2016-06-08 11:52:48,0.02,2.15,0.00,33.29,36.47,38.83,13.95,46.61,1020.04,1994.35,2684.38,2532.23,2827.12,600.19,578.07,32.90,0000 0000 0000 0000 000000
2016-06-08 11:57:49,0.08,2.15,0.00,33.29,36.51,38.87,14.00,46.71,1020.04,1994.02,2682.95,2531.16,2825.91,599.89,577.78,32.95,0000 0000 0000 0000 000000
2016-06-08 12:02:50,0.09,2.16,0.00,33.29,36.54,38.90,14.04,46.67,1020.04,1994.00,2681.47,2530.15,2824.57,600.38,578.29,33.00,0000 0000 0000 0000 000000
2016-06-08 12:07:52,0.08,2.16,0.00,33.28,36.58,38.92,13.95,46.53,1020.04,1994.00,2680.34,2529.26,2823.46,600.04,578.02,33.05,0000 0000 0000 0000 000000
2016-06-08 12:12:53,0.10,2.17,0.00,33.27,36.61,38.96,13.92,46.40,1020.04,1993.98,2678.65,2528.25,2822.16,599.98,578.00,33.10,0000 0000 0000 0000 000000
2016-06-08 12:17:54,0.15,2.17,0.00,33.28,36.64,38.99,13.99,46.34,1020.02,1993.91,2676.33,2526.83,2820.28,599.93,577.89,33.15,0000 0000 0000 0000 000000
2016-06-08 12:22:56,0.08,2.18,0.00,33.28,36.67,39.01,13.93,46.08,1019.98,1993.71,2673.99,2525.28,2818.34,599.71,577.59,33.20,0000 0000 0000 0000 000000
2016-06-08 12:27:57,0.07,2.18,0.00,33.30,36.70,39.03,13.97,46.15,1020.00,1993.26,2672.13,2523.98,2816.86,600.22,578.14,33.25,0000 0000 0000 0000 000000
2016-06-08 12:32:58,0.06,2.19,0.00,33.31,36.73,39.07,13.91,46.05,1019.89,1993.02,2671.00,2522.80,2816.12,599.93,577.72,33.30,0000 0000 0000 0000 000000
2016-06-08 12:37:59,0.13,2.19,0.00,33.30,36.76,39.09,14.01,46.20,1019.89,1993.00,2669.19,2521.56,2814.60,600.21,578.02,33.35,0000 0000 0000 0000 000000
2016-06-08 12:43:01,0.12,2.20,0.00,33.12,36.78,39.17,14.01,46.35,1019.90,1993.00,2666.94,2520.27,2812.89,600.25,578.51,33.40,0000 0000 0000 0000 000000
2016-06-08 12:48:02,0.08,2.20,0.00,32.92,36.79,39.39,14.07,46.18,1019.86,1992.98,2665.31,2519.15,2811.68,600.36,578.92,33.45,0000 0000 0000 0000 000000
2016-06-08 12:53:03,0.12,2.21,0.00,32.91,36.80,39.51,14.03,46.36,1019.63,1992.98,2663.16,2518.08,2810.01,600.10,578.54,33.50,0000 0000 0000 0000 000000
2016-06-08 12:58:04,0.02,2.21,0.00,32.88,36.80,39.51,13.99,46.21,1019.58,1992.94,2662.58,2517.27,2809.64,600.07,578.60,33.55,0000 0000 0000 0000 000000